User: anonymous   Login
Location: Canyon Rim
(40.8777°N, 111.8641°W)
Time: 04:10:32
(UTC+00:00)
Language:

M-CUBED/EXP-1 PRIME - Orbit

View from above orbital plane
View from above orbital plane
View from above satellite
View from above satellite

Ground track
Ground track

The orbit data is extracted from the following two-line orbital elements,

1 37855U 11061F   21165.70237723  .00002099  00000-0  10740-3 0  9998
2 37855 101.7127  87.6741 0167112  78.8562 283.1388 15.07667400526233
Epoch (UTC): 14 June 2021 16:51:25
Eccentricity: 0.0167112
inclination: 101.7127°
perigee height: 427 km
apogee height: 659 km
right ascension of ascending node: 87.6741°
argument of perigee: 78.8562°
revolutions per day: 15.07667400
mean anomaly at epoch: 283.1388°
orbit number at epoch: 52623

The dashed part of the orbit path shows where the satellite is in the earth's shadow,  

DLR